Location: Warszawa
(52.2500°N, 21.0000°E)
Time: 20:14:29
(UTC+02:00)

Vanguard 2 - Pass Details

Date: 02 February 2023
Orbit: 553 x 2927 km, 32.9° (Epoch: 27 March)

Event Time Altitude Azimuth Distance (km) Brightness Sun altitude
Exits shadow 02:09:09 20° 155° (SSE) 4,529 11.2 -45.3°
Drops below altitude 10° 02:13:15 10° 143° (SE) 5,111 11.7 -44.8°
Sets 02:17:19 0° 134° (SE) 5,834 12.1 -44.3°
